| time (UTC) | temp C | wind direction | speed KPH | gust KPH | rain 1hr cm | rain 24hr cm | rain mn cm | humidity % | barometer mb |
| 20260508043014 | 2 | 92 | 0.0 | 1.6 | 0.00 | 0.00 | 0.00 | 66 | 1020.1 |
| 20260508041515 | 3 | 92 | 0.0 | 1.6 | 0.00 | 0.00 | 0.00 | 64 | 1020.1 |
| 20260508040033 | 3 | 106 | 0.0 | 3.2 | 0.00 | 0.00 | 0.00 | 61 | 1020.3 |
| 20260508034513 | 3 | 89 | 1.6 | 3.2 | 0.00 | 0.00 | 0.00 | 58 | 1020.3 |
| 20260508033016 | 3 | 89 | 1.6 | 3.2 | 0.00 | 0.00 | 0.00 | 57 | 1020.1 |
| 20260508031516 | 4 | 89 | 0.0 | 3.2 | 0.00 | 0.00 | 0.00 | 54 | 1020.1 |
| 20260508030011 | 3 | 89 | 0.0 | 3.2 | 0.00 | 0.00 | 0.00 | 60 | 1019.9 |
| 20260508024519 | 4 | 82 | 1.6 | 4.8 | 0.00 | 0.00 | 0.00 | 58 | 1019.9 |
| 20260508023012 | 3 | 115 | 1.6 | 4.8 | 0.00 | 0.00 | 0.00 | 58 | 1019.8 |
| 20260508021512 | 4 | 109 | 3.2 | 4.8 | 0.00 | 0.00 | 0.00 | 57 | 1019.6 |
| 20260508020008 | 4 | 91 | 3.2 | 3.2 | 0.00 | 0.00 | 0.00 | 56 | 1019.7 |
| 20260508014508 | 5 | 106 | 0.0 | 4.8 | 0.00 | 0.00 | 0.00 | 52 | 1019.6 |
| 20260508013008 | 6 | 121 | 1.6 | 4.8 | 0.00 | 0.00 | 0.00 | 50 | 1019.6 |
| 20260508011507 | 6 | 71 | 0.0 | 8.0 | 0.00 | 0.00 | 0.00 | 48 | 1019.6 |
| 20260508010008 | 6 | 104 | 0.0 | 4.8 | 0.00 | 0.00 | 0.00 | 49 | 1019.6 |
| 20260508004507 | 7 | 84 | 0.0 | 3.2 | 0.00 | 0.00 | 0.00 | 45 | 1019.8 |
| 20260508003006 | 8 | 266 | 1.6 | 14.5 | 0.00 | 0.00 | 0.00 | 42 | 1019.9 |
| 20260508001506 | 8 | 3 | 1.6 | 11.3 | 0.00 | 0.00 | 0.00 | 41 | 1019.9 |
| 20260508000006 | 8 | 27 | 3.2 | 9.7 | 0.00 | 0.00 | 0.00 | 38 | 1020.1 |
| 20260507234503 | 9 | 15 | 3.2 | 9.7 | 0.00 | 0.00 | 0.00 | 35 | 1019.7 |
| 20260507233003 | 10 | 20 | 1.6 | 6.4 | 0.00 | 0.00 | 0.00 | 38 | 1019.6 |
| 20260507231502 | 10 | 63 | 1.6 | 11.3 | 0.00 | 0.00 | 0.00 | 35 | 1019.9 |
| 20260507230100 | 8 | 77 | 1.6 | 9.7 | 0.00 | 0.00 | 0.00 | 37 | 1020.0 |
| 20260507224600 | 9 | 86 | 4.8 | 11.3 | 0.00 | 0.00 | 0.00 | 36 | 1020.0 |
| 20260507223116 | 8 | 141 | 1.6 | 4.8 | 0.00 | 0.00 | 0.00 | 37 | 1020.1 |
| 20260507221558 | 9 | 82 | 0.0 | 4.8 | 0.00 | 0.00 | 0.00 | 37 | 1020.3 |
| 20260507220057 | 10 | 304 | 0.0 | 0.0 | 0.00 | 0.00 | 0.00 | 37 | 1020.5 |
| 20260507214553 | 10 | 293 | 0.0 | 0.0 | 0.00 | 0.00 | 0.00 | 41 | 1020.8 |
| 20260507213052 | 10 | 15 | 0.0 | 0.0 | 0.00 | 0.00 | 0.00 | 40 | 1021.1 |
| 20260507211600 | 11 | 321 | 0.0 | 16.1 | 0.00 | 0.00 | 0.00 | 35 | 1021.3 |
| 20260507210106 | 11 | 92 | 0.0 | 1.6 | 0.00 | 0.00 | 0.00 | 36 | 1021.4 |
| 20260507204549 | 10 | 57 | 0.0 | 4.8 | 0.00 | 0.00 | 0.00 | 36 | 1021.6 |
| 20260507203046 | 11 | 33 | 0.0 | 0.0 | 0.00 | 0.00 | 0.00 | 37 | 1021.7 |
| 20260507201545 | 11 | 78 | 0.0 | 0.0 | 0.00 | 0.00 | 0.00 | 44 | 1021.8 |
| 20260507200050 | 10 | 68 | 0.0 | 0.0 | 0.00 | 0.00 | 0.00 | 41 | 1022.2 |
| 20260507194548 | 9 | 338 | 0.0 | 0.0 | 0.00 | 0.00 | 0.00 | 44 | 1022.4 |
| 20260507193034 | 8 | 303 | 0.0 | 0.0 | 0.00 | 0.00 | 0.00 | 44 | 1022.7 |
| 20260507191534 | 8 | 359 | 0.0 | 14.5 | 0.00 | 0.00 | 0.00 | 44 | 1022.8 |
| 20260507190041 | 8 | 312 | 3.2 | 11.3 | 0.00 | 0.00 | 0.00 | 49 | 1023.2 |
| 20260507184533 | 7 | 311 | 6.4 | 16.1 | 0.00 | 0.00 | 0.00 | 48 | 1023.7 |
| 20260507183025 | 7 | 311 | 4.8 | 9.7 | 0.00 | 0.00 | 0.00 | 47 | 1024.1 |
| 20260507181524 | 7 | 307 | 1.6 | 6.4 | 0.00 | 0.00 | 0.00 | 50 | 1024.2 |
| 20260507180021 | 6 | 29 | 1.6 | 8.0 | 0.00 | 0.00 | 0.00 | 55 | 1024.5 |
| 20260507174518 | 6 | 314 | 4.8 | 8.0 | 0.00 | 0.00 | 0.00 | 58 | 1024.7 |
| 20260507173034 | 5 | 305 | 3.2 | 8.0 | 0.00 | 0.00 | 0.00 | 57 | 1025.1 |
| 20260507171511 | 5 | 328 | 3.2 | 8.0 | 0.00 | 0.00 | 0.00 | 56 | 1025.6 |
| 20260507170016 | 4 | 255 | 4.8 | 9.7 | 0.00 | 0.00 | 0.00 | 59 | 1025.8 |
| 20260507164512 | 3 | 326 | 3.2 | 6.4 | 0.00 | 0.00 | 0.00 | 58 | 1026.2 |
| 20260507163002 | 3 | 296 | 3.2 | 6.4 | 0.00 | 0.00 | 0.00 | 58 | 1026.3 |
| 20260507161604 | 2 | 298 | 3.2 | 8.0 | 0.00 | 0.00 | 0.00 | 57 | 1026.7 |
| 20260507160057 | 2 | 276 | 1.6 | 6.4 | 0.00 | 0.00 | 0.00 | 54 | 1027.0 |
| 20260507154557 | 1 | 293 | 0.0 | 4.8 | 0.00 | 0.00 | 0.00 | 55 | 1027.3 |
| 20260507153050 | 1 | 356 | 1.6 | 4.8 | 0.00 | 0.00 | 0.00 | 56 | 1027.4 |
| 20260507151548 | 0 | 311 | 0.0 | 4.8 | 0.00 | 0.00 | 0.00 | 57 | 1027.5 |
| 20260507150047 | 0 | 264 | 1.6 | 4.8 | 0.00 | 0.00 | 0.00 | 58 | 1027.6 |
| 20260507144540 | -1 | 32 | 0.0 | 6.4 | 0.00 | 0.00 | 0.00 | 60 | 1027.6 |
| 20260507143040 | -1 | 344 | 0.0 | 3.2 | 0.00 | 0.00 | 0.00 | 62 | 1027.8 |
| 20260507141533 | -2 | 345 | 0.0 | 4.8 | 0.00 | 0.00 | 0.00 | 65 | 1027.9 |
| 20260507140027 | -3 | 359 | 1.6 | 3.2 | 0.00 | 0.00 | 0.00 | 68 | 1027.9 |
| 20260507134523 | -5 | 96 | 0.0 | 1.6 | 0.00 | 0.00 | 0.00 | 74 | 1027.8 |
| 20260507133024 | -6 | 96 | 0.0 | 1.6 | 0.00 | 0.00 | 0.00 | 76 | 1027.8 |
| 20260507131520 | -7 | 96 | 0.0 | 0.0 | 0.00 | 0.00 | 0.00 | 80 | 1027.7 |
| 20260507130016 | -8 | 96 | 0.0 | 0.0 | 0.00 | 0.00 | 0.00 | 84 | 1027.5 |
| 20260507124520 | -8 | 96 | 0.0 | 0.0 | 0.00 | 0.00 | 0.00 | 84 | 1027.2 |
| 20260507123014 | -8 | 96 | 0.0 | 1.6 | 0.00 | 0.00 | 0.00 | 86 | 1026.8 |
| 20260507121514 | -8 | 96 | 0.0 | 0.0 | 0.00 | 0.00 | 0.00 | 83 | 1026.6 |
| 20260507120009 | -8 | 96 | 0.0 | 0.0 | 0.00 | 0.00 | 0.00 | 84 | 1026.3 |
| 20260507114509 | -8 | 96 | 0.0 | 0.0 | 0.00 | 0.00 | 0.00 | 82 | 1026.2 |
| 20260507113029 | -8 | 96 | 0.0 | 1.6 | 0.00 | 0.00 | 0.00 | 83 | 1026.2 |
| 20260507111507 | -8 | 97 | 0.0 | 1.6 | 0.00 | 0.00 | 0.00 | 82 | 1026.3 |
| 20260507110009 | -8 | 97 | 0.0 | 1.6 | 0.00 | 0.00 | 0.00 | 81 | 1026.3 |
| 20260507104505 | -8 | 97 | 0.0 | 1.6 | 0.00 | 0.00 | 0.00 | 82 | 1026.3 |
| 20260507103001 | -8 | 97 | 0.0 | 1.6 | 0.00 | 0.00 | 0.00 | 83 | 1026.3 |
| 20260507101559 | -8 | 97 | 0.0 | 0.0 | 0.00 | 0.00 | 0.00 | 83 | 1026.0 |
| 20260507100111 | -7 | 97 | 0.0 | 0.0 | 0.00 | 0.00 | 0.00 | 83 | 1025.8 |
| 20260507094602 | -8 | 96 | 0.0 | 1.6 | 0.00 | 0.00 | 0.00 | 83 | 1025.6 |
| 20260507093053 | -7 | 97 | 0.0 | 0.0 | 0.00 | 0.00 | 0.00 | 83 | 1025.3 |
| 20260507091608 | -7 | 97 | 0.0 | 0.0 | 0.00 | 0.00 | 0.00 | 82 | 1025.3 |
| 20260507090050 | -7 | 97 | 0.0 | 0.0 | 0.00 | 0.00 | 0.00 | 82 | 1025.2 |
| 20260507084600 | -7 | 97 | 0.0 | 0.0 | 0.00 | 0.00 | 0.00 | 82 | 1025.2 |
| 20260507083047 | -7 | 97 | 0.0 | 0.0 | 0.00 | 0.00 | 0.00 | 81 | 1025.2 |
| 20260507081552 | -6 | 97 | 0.0 | 0.0 | 0.00 | 0.00 | 0.00 | 82 | 1025.1 |
| 20260507080044 | -7 | 99 | 0.0 | 3.2 | 0.00 | 0.00 | 0.00 | 82 | 1024.9 |
| 20260507074540 | -7 | 99 | 0.0 | 1.6 | 0.00 | 0.00 | 0.00 | 81 | 1024.7 |
| 20260507073036 | -6 | 100 | 0.0 | 0.0 | 0.00 | 0.00 | 0.00 | 80 | 1024.7 |
| 20260507071531 | -6 | 99 | 0.0 | 1.6 | 0.00 | 0.00 | 0.00 | 79 | 1024.6 |
| 20260507070028 | -6 | 100 | 0.0 | 1.6 | 0.00 | 0.00 | 0.00 | 79 | 1024.1 |
| 20260507064525 | -5 | 100 | 0.0 | 3.2 | 0.00 | 0.00 | 0.00 | 80 | 1024.2 |
| 20260507063027 | -5 | 102 | 0.0 | 3.2 | 0.00 | 0.00 | 0.00 | 78 | 1024.0 |
| 20260507061520 | -5 | 102 | 0.0 | 1.6 | 0.00 | 0.00 | 0.00 | 78 | 1023.9 |
| 20260507060017 | -5 | 89 | 0.0 | 1.6 | 0.00 | 0.00 | 0.00 | 79 | 1023.8 |
| 20260507054515 | -5 | 87 | 0.0 | 1.6 | 0.00 | 0.00 | 0.00 | 80 | 1023.7 |
| 20260507053013 | -5 | 87 | 0.0 | 1.6 | 0.00 | 0.00 | 0.00 | 81 | 1023.5 |
| 20260507051510 | -5 | 87 | 0.0 | 1.6 | 0.00 | 0.00 | 0.00 | 79 | 1023.2 |
| 20260507050012 | -5 | 88 | 0.0 | 0.0 | 0.00 | 0.00 | 0.00 | 79 | 1022.7 |
| 20260507044504 | -5 | 87 | 0.0 | 0.0 | 0.00 | 0.00 | 0.00 | 78 | 1022.6 |